Satellite-Ground Cal/Val Region Overpasses Predictions

Prediction of Satellite NPP Overpassing Cal/Val Region: PacNW

Region Location: (Latitude: 10.00, Longitude: 139.50) to (Latitude: 22.70, Longitude: 165.60).

Table of predicted overpasses for the next 14.0 days since TLE Epoch: 5/24/2012
Interval Starting Time Starting Location Ending Time Ending Location
1 05/25/2012 02:57:04 ( 10.05, 155.08) 05/25/2012 03:00:39 ( 22.68, 152.08)
2 05/25/2012 15:28:55 ( 22.68, 152.31) 05/25/2012 15:32:30 ( 10.06, 149.31)
3 05/26/2012 02:38:00 ( 10.02, 159.85) 05/26/2012 02:41:36 ( 22.70, 156.83)
4 05/26/2012 15:09:53 ( 22.66, 157.07) 05/26/2012 15:13:28 ( 10.04, 154.07)
5 05/27/2012 02:18:58 ( 10.04, 164.60) 05/27/2012 02:22:33 ( 22.66, 161.60)
6 05/27/2012 14:50:49 ( 22.70, 161.84) 05/27/2012 14:54:25 ( 10.02, 158.82)
7 05/28/2012 03:41:24 ( 10.01, 143.99) 05/28/2012 03:45:00 ( 22.69, 140.98)
8 05/28/2012 14:32:56 ( 18.63, 165.60) 05/28/2012 14:35:22 ( 10.05, 163.59)
9 05/28/2012 16:13:17 ( 22.67, 141.22) 05/28/2012 16:15:17 ( 15.63, 139.51)
10 05/29/2012 03:22:22 ( 10.03, 148.75) 05/29/2012 03:25:57 ( 22.65, 145.75)
11 05/29/2012 15:54:14 ( 22.64, 145.97) 05/29/2012 15:57:49 ( 10.02, 142.97)
12 05/30/2012 03:03:19 ( 10.05, 153.50) 05/30/2012 03:06:54 ( 22.68, 150.50)
13 05/30/2012 15:35:11 ( 22.68, 150.74) 05/30/2012 15:38:47 ( 10.00, 147.73)
14 05/31/2012 02:44:16 ( 10.02, 158.27) 05/31/2012 02:47:52 ( 22.70, 155.26)
15 05/31/2012 15:16:09 ( 22.66, 155.50) 05/31/2012 15:19:44 ( 10.04, 152.50)
16 06/01/2012 02:25:13 ( 10.04, 163.03) 06/01/2012 02:28:48 ( 22.66, 160.03)
17 06/01/2012 14:57:05 ( 22.70, 160.26) 06/01/2012 15:00:41 ( 10.02, 157.25)
18 06/02/2012 02:08:50 ( 19.40, 165.59) 06/02/2012 02:09:46 ( 22.68, 164.78)
19 06/02/2012 03:47:40 ( 10.01, 142.42) 06/02/2012 03:51:09 ( 22.28, 139.51)
20 06/02/2012 14:38:03 ( 22.68, 165.02) 06/02/2012 14:41:38 ( 10.05, 162.02)
21 06/02/2012 16:19:33 ( 22.67, 139.64) 06/02/2012 16:19:42 ( 22.14, 139.51)
22 06/03/2012 03:28:37 ( 10.03, 147.18) 06/03/2012 03:32:12 ( 22.66, 144.18)
23 06/03/2012 16:00:30 ( 22.64, 144.40) 06/03/2012 16:04:05 ( 10.02, 141.40)
24 06/04/2012 03:09:35 ( 10.06, 151.93) 06/04/2012 03:13:10 ( 22.68, 148.93)
25 06/04/2012 15:41:27 ( 22.68, 149.17) 06/04/2012 15:45:03 ( 10.00, 146.15)
26 06/05/2012 02:50:31 ( 10.02, 156.70) 06/05/2012 02:54:06 ( 22.64, 153.70)
27 06/05/2012 15:22:24 ( 22.66, 153.92) 06/05/2012 15:25:59 ( 10.04, 150.92)
28 06/06/2012 02:31:29 ( 10.04, 161.45) 06/06/2012 02:35:04 ( 22.67, 158.45)
29 06/06/2012 15:03:21 ( 22.70, 158.69) 06/06/2012 15:06:57 ( 10.02, 155.68)
30 06/07/2012 02:13:12 ( 12.77, 165.59) 06/07/2012 02:16:01 ( 22.69, 163.21)
31 06/07/2012 03:53:55 ( 10.02, 140.85) 06/07/2012 03:55:33 ( 15.78, 139.51)


NCC Satellite Cal/Val Overpasses Prediction Service
